Overview Statistics Trail Chart Weather Telemetry Raw packets
 

This is the latest recevied weather packets stored in our database for station/object KR4KUV. If no packets are shown the sender has not sent any weather packets the latest 10 day(s).

<< 1 2 3 4 5 >>
Time Temp. Humidity Pressure Rain* Wind** Luminosity Snow
1788568195 27.78° C 88% 1016.6 hPa 0 mm - 0 W/m² -
1788567890 27.78° C 88% 1016.4 hPa 0 mm - 0 W/m² -
1788567584 27.78° C 87% 1016.4 hPa 0 mm - 0 W/m² -
1788567279 27.78° C 86% 1016.4 hPa 0 mm - 0 W/m² -
1788566973 28.33° C 86% 1016.3 hPa 0 mm - 0 W/m² -
1788566669 28.33° C 85% 1016.6 hPa 0 mm - 0 W/m² -
1788566364 28.89° C 84% 1016.2 hPa 0 mm - 0 W/m² -
1788566060 28.89° C 83% 1016.2 hPa 0 mm - 1 W/m² -
1788565760 28.89° C 83% 1016 hPa 0 mm - 2 W/m² -
1788565454 29.44° C 81% 1016.2 hPa 0 mm - 4 W/m² -
1788565150 29.44° C 80% 1016.3 hPa 0 mm - 6 W/m² -
1788564845 30° C 79% 1016 hPa 0 mm - 9 W/m² -
1788564542 30.56° C 78% 1015.9 hPa 0 mm - 11 W/m² -
1788564238 30.56° C 76% 1016 hPa 0 mm - 14 W/m² -
1788563934 30.56° C 75% 1015.8 hPa 0 mm - 17 W/m² -
1788563629 31.11° C 72% 1015.9 hPa 0 mm - 20 W/m² -
1788563324 31.67° C 71% 1015.8 hPa 0 mm - 23 W/m² -
1788563023 32.22° C 69% 1015.7 hPa 0 mm - 26 W/m² -
1788562718 32.78° C 68% 1015.7 hPa 0 mm - 34 W/m² -
1788562415 32.22° C 68% 1015.5 hPa 0 mm - 51 W/m² -
1788562124 32.22° C 67% 1015.6 hPa 0 mm - 60 W/m² -
1788561806 32.78° C 66% 1015.6 hPa 0 mm - 69 W/m² -
1788561504 33.33° C 63% 1015.6 hPa 0 mm - 80 W/m² -
1788561199 35° C 60% 1015.4 hPa 0 mm - 90 W/m² -
1788560896 34.44° C 60% 1015.7 hPa 0 mm - 100 W/m² -

* Rain latest hour (hover to see other rain measurements)
** Current wind speed in m/s (hover to see current wind gust speed)